World > North America > United States > Pennsylvania

Crooked Creek, Pennsylvania Regional Weather

Lat: 41.86N, Lon: 77.24W
Wx Zone: PAZ037Web Search

Pass this page to a friend. Tell them to point their camera at the QR Code near the bottom of this page.

Feedback


°F Click to change Crooked Creek hourly weather to Imperial units.Click to change Crooked Creek hourly weather to Metric units. °C
Crooked Creek Weather Map
UTC Time: 5/18/2021, 10:48
Your Time:

Crooked Creek, PA Regional Weather

Expires:202105181100;;303869
ASUS41 KCTP 181003
RWRCTP

REGIONAL WEATHER ROUNDUP
NATIONAL WEATHER SERVICE STATE COLLEGE PA
600 AM EDT TUE MAY 18 2021

Note: "fair" indicates few or no clouds below 12,000 feet with no 
significant weather and/or obstructions to visibility.

* = STATION THAT DOES NOT REPORT PRECIPITATION /E.G. RAIN...SNOW...ETC/
    THUNDER OR FOG.


PAZ004>006-010>012-017>019-024>028-033>037-041-042-045-046-049>053-181100-
CENTRAL PENNSYLVANIA
  
CITY           SKY/WX    TMP DP  RH WIND       PRES   REMARKS
BRADFORD       CLEAR     41  37  86 CALM      30.34S                  
ST MARYS       NOT AVBL                                               
DUBOIS         CLEAR     48  42  80 E3        30.33R                  
CLEARFIELD     CLEAR     42  42 100 N3        30.35R                  
JOHNSTOWN      CLEAR     52  42  69 CALM      30.33S                  
SOMERSET       FAIR      43  41  93 CALM      30.34S                  
ALTOONA        CLEAR     46  43  89 CALM      30.33S                  
STATE COLLEGE  CLEAR     46  43  87 CALM      30.33S                  
REEDSVILLE     FAIR      45 N/A N/A CALM      30.33                   
WELLSBORO      FAIR      45  43  93 CALM      30.33S                  
WILLIAMSPORT   CLEAR     46  43  89 N3        30.34R                  
SELINSGROVE    CLEAR     43  42  97 CALM      30.35R FOG              
FT INDIANTOWN  CLEAR     45  42  92 CALM      30.33R                  
CAPITAL CITY   CLEAR     48  45  89 SW3       30.33S                  
HARRISBURG     CLEAR     52  47  83 CALM      30.33R                  
YORK           CLEAR     45  42  89 CALM      30.33F                  
$$


SKY/WX - Weather  TMP - Temperature  DP - Dew Point  RH - Relative Humidity
WIND - Wind Direction/Speed PRES - Barometric Pressure VSB - Visibility
WCI - Wind Chill Index E13G22 Wind - East Wind 13 mph/Gusts of 22 mph